Weather History for KGTF - May, 2013

Change the Weather History Date:

Monday, May 13, 2013

  Actual Average Record
Temperature  
Mean Temperature 66 °F 51 °F  
Max Temperature 85 °F 64 °F 89 °F (1931)
Min Temperature 46 °F 38 °F 20 °F (2004)
Degree Days  
Heating Degree Days 0 14  
Month to date heating degree days 161 207  
Since 1 July heating degree days 6627 7324  
Cooling Degree Days 1 0  
Month to date cooling degree days 3 0  
Year to date cooling degree days 3 1  
Growing Degree Days 19 (Base 50)    
Moisture  
Dew Point 43 °F    
Average Humidity 44    
Maximum Humidity 68    
Minimum Humidity 20    
Precipitation  
Precipitation T in 0.07 in 0.71 in (1962)
Month to date precipitation 0.41 0.75  
Year to date precipitation 2.70 4.06  
Snow  
Snow 0.00 in 0.10 in 1.30 in (2009)
Month to date snowfall 0.0 1.7  
Since 1 July snowfall 76.2 62.2  
Snow Depth 0.00 in    
Sea Level Pressure  
Sea Level Pressure 29.79 in    
Wind  
Wind Speed 19 mph (WSW)    
Max Wind Speed 36 mph    
Max Gust Speed 48 mph    
Visibility 10 miles    
Events Rain    
T = Trace of Precipitation, MM = Missing Value Source: NWS Daily Summary

Daily Weather History Graph

Daily Weather History Graph

Search for Another Location

Airport or City:

Trip Planner

Search our weather history database for the weather conditions in past years. The results will help you decide how hot, cold, wet, or windy it might be!

Date:

Astronomy

May. 13, 2013 Rise Set
Actual Time 5:50 AM MDT 8:53 PM MDT
Civil Twilight 5:14 AM MDT 9:30 PM MDT
Nautical Twilight 4:27 AM MDT 10:17 PM MDT
Astronomical Twilight 3:30 AM MDT 11:15 PM MDT
Moon 8:38 AM MDT (5/13) No Moon Set
Length of Visible Light 16h 15m
Length of Day
15h 03m
Waxing Crescent, 12% of the Moon is Illuminated
May 13
Waxing Crescent
May 17
First Quarter
May 24
Full
May 31
Last Quarter
Jun 8
New

Hourly Weather History & Observations

Time (MDT) Temp. Dew Point Humidity Pressure Visibility Wind Dir Wind Speed Gust Speed Precip Events Conditions
12:53 AM 64.9 °F 39.0 °F 39% 29.85 in 10.0 mi SW 13.8 mph - N/A   Clear
1:53 AM 62.1 °F 39.0 °F 43% 29.86 in 10.0 mi WSW 11.5 mph - N/A   Clear
2:53 AM 57.0 °F 39.9 °F 53% 29.87 in 10.0 mi South 9.2 mph - N/A   Clear
3:53 AM 57.0 °F 41.0 °F 55% 29.88 in 10.0 mi SSW 11.5 mph - N/A   Clear
4:53 AM 61.0 °F 41.0 °F 48% 29.88 in 10.0 mi SW 11.5 mph - N/A   Clear
5:53 AM 60.1 °F 42.1 °F 51% 29.89 in 10.0 mi SW 11.5 mph - N/A   Clear
6:53 AM 61.0 °F 43.0 °F 52% 29.88 in 10.0 mi SW 15.0 mph - N/A   Clear
7:53 AM 64.0 °F 45.0 °F 50% 29.88 in 10.0 mi SW 13.8 mph - N/A   Clear
8:53 AM 70.0 °F 46.0 °F 42% 29.88 in 10.0 mi SW 20.7 mph - N/A   Clear
9:53 AM 73.0 °F 46.0 °F 38% 29.86 in 10.0 mi SW 15.0 mph 21.9 mph N/A   Clear
10:53 AM 75.0 °F 45.0 °F 34% 29.84 in 10.0 mi SW 17.3 mph 27.6 mph N/A   Clear
11:53 AM 78.1 °F 44.1 °F 30% 29.82 in 10.0 mi WSW 16.1 mph 31.1 mph N/A   Clear
12:53 PM 80.1 °F 45.0 °F 29% 29.81 in 10.0 mi WSW 23.0 mph 31.1 mph N/A   Mostly Cloudy
2:53 PM 84.0 °F 43.0 °F 24% 29.73 in 10.0 mi West 16.1 mph 29.9 mph N/A   Clear
3:53 PM 84.0 °F 42.1 °F 23% 29.68 in 10.0 mi WSW 21.9 mph 29.9 mph N/A   Clear
4:53 PM 84.9 °F 39.0 °F 20% 29.62 in 10.0 mi WSW 24.2 mph 33.4 mph N/A   Clear
5:53 PM 80.6 °F 39.2 °F 23% 29.68 in 10.0 mi West 15.0 mph 23.0 mph N/A   Mostly Cloudy
6:53 PM 75.9 °F 41.0 °F 29% 29.57 in 10.0 mi WNW 32.2 mph 40.3 mph 0.00 in Rain Light Rain
7:53 PM 62.1 °F 48.9 °F 62% 29.65 in 10.0 mi WNW 29.9 mph 38.0 mph 0.00 in   Partly Cloudy
8:53 PM 61.0 °F 46.9 °F 60% 29.66 in 10.0 mi West 20.7 mph - N/A   Clear
9:44 PM 62.6 °F 44.6 °F 52% 29.82 in 10.0 mi West 15.0 mph - N/A   Clear
9:53 PM 61.0 °F 43.0 °F 52% 29.77 in 10.0 mi WNW 34.5 mph 42.6 mph N/A   Scattered Clouds
10:53 PM 54.0 °F 41.0 °F 62% 29.79 in 10.0 mi West 24.2 mph 31.1 mph N/A   Partly Cloudy
11:53 PM 51.1 °F 41.0 °F 68% 29.81 in 10.0 mi West 13.8 mph - N/A   Partly Cloudy